Location: Sternwarte ZA, Rosenfeld-Brittheim
(48.2889°N, 8.6789°E)
Time: 19:57:37

ISS - Pass Details

Date: 16 March 2018
Orbit: 403 x 406 km, 51.6° (Epoch: 23 March)

Event Time Altitude Azimuth Distance (km) Brightness Sun altitude
Exits shadow 03:39:35 15° 79° (E) 1,211 -0.7 -28.8°
Drops below altitude 10° 03:40:15 10° 83° (E) 1,466 -0.3 -28.7°
Sets 03:42:23 0° 90° (E) 2,325 0.8 -28.4°
